Wind_Speed
75 76 77 77 77 78 79 80 81 81 83 87 91 92 88 93 90 89 90 90 90 91 89 85 86 87 85 81 79 85 88 87 84 78 76 76 75 74 75 75 75 75 74
79 80 80 81 82 83 84 84 83 83 85 89 93 97 98 97 98 97 97 100 102 98 95 96 89 89 90 89 89 87 81 83 89 91 81 80 80 78 78 79 79 80 80
82 82 82 84 85 86 87 88 88 88 88 89 90 91 93 97 101 103 107 104 102 101 102 102 100 103 100 97 92 89 91 90 85 90 90 88 86 81 81 81 80 82 81
83 84 86 87 87 88 89 90 91 91 92 92 92 93 94 97 99 102 104 104 105 106 105 103 103 103 102 102 96 93 92 92 94 90 90 88 88 84 84 82 81 80 79
84 85 86 88 89 90 90 89 89 88 88 88 89 89 90 92 96 99 101 103 105 107 108 111 111 110 109 107 105 105 102 101 96 98 95 94 93 88 85 82 82 79 80
86 87 88 87 86 83 80 78 74 72 71 71 72 74 77 80 82 85 89 94 97 101 104 105 111 115 115 112 112 112 110 110 109 106 100 98 94 94 90 89 88 82 80
87 85 81 76 72 69 66 66 66 66 67 68 71 72 74 76 78 80 83 85 87 88 90 93 97 100 107 113 111 110 113 113 113 112 112 109 106 104 100 96 91 90 85
77 72 68 65 63 63 64 65 66 68 70 72 73 73 72 72 73 74 75 76 76 77 80 82 85 86 87 91 97 100 101 101 103 104 112 114 110 108 109 106 103 98 93
64 62 62 61 61 62 63 65 68 69 70 71 72 71 71 71 70 71 73 73 73 72 73 74 75 75 77 80 83 87 91 93 94 96 101 105 108 108 108 108 111 109 103
59 60 61 61 62 62 64 65 67 70 70 68 68 68 65 65 65 65 65 62 59 56 55 56 59 64 68 73 80 83 83 86 90 92 94 96 99 103 107 109 110 112 109
59 60 60 61 61 62 64 66 66 66 67 65 61 59 57 53 53 51 47 41 38 41 45 49 53 56 60 66 70 73 77 82 86 91 93 94 95 97 100 104 107 110 109
57 58 59 60 63 64 65 66 67 67 65 60 56 48 41 45 50 44 43 43 43 43 44 47 53 55 57 60 63 66 71 78 84 87 88 90 93 94 94 96 101 108 111
55 57 60 62 64 65 65 66 66 66 60 55 47 37 38 42 43 44 40 40 41 42 42 43 43 44 48 52 58 65 69 72 75 79 84 86 86 87 92 95 95 96 101
57 59 61 62 63 63 64 65 62 61 56 46 38 37 39 39 38 34 36 40 43 46 48 48 48 47 50 54 60 64 66 67 68 68 72 76 81 82 80 83 90 93 96
59 60 60 60 61 61 62 59 58 58 50 40 36 37 37 36 36 35 36 37 37 37 39 42 46 48 50 54 56 56 56 58 60 61 61 65 70 74 75 72 74 83 93
61 60 60 60 60 60 56 51 53 53 43 36 36 37 37 37 37 37 39 40 41 42 42 42 43 45 48 52 55 54 53 51 50 50 53 55 59 64 66 66 66 70 79
59 60 60 60 57 53 54 54 50 48 41 36 35 36 38 38 39 41 42 43 45 45 46 45 44 44 46 49 53 52 47 47 46 44 42 44 48 55 61 61 61 61 61
60 58 55 52 52 54 54 53 51 44 34 36 36 35 35 37 39 41 43 46 47 48 48 47 45 44 43 43 48 47 43 41 39 33 31 33 38 44 55 58 56 54 57
54 52 52 52 53 55 56 54 50 39 33 33 33 36 35 37 40 42 44 46 49 51 50 49 46 41 39 39 42 43 40 36 33 28 24 25 27 32 40 45 49 51 53
51 51 51 55 57 58 58 54 45 33 31 31 30 30 35 37 40 43 45 47 48 49 47 45 41 36 34 34 37 39 36 32 30 25 21 18 23 27 30 34 39 42 47
51 53 55 57 58 57 55 47 38 29 29 29 29 30 32 35 38 41 42 43 44 44 42 39 34 31 29 30 33 35 32 30 26 25 23 21 18 20 23 27 32 36 41
55 58 61 59 55 52 46 40 28 26 25 26 28 30 31 33 36 38 38 41 41 40 37 34 29 26 25 27 29 29 28 28 28 24 22 21 24 25 26 28 32 35 39
61 61 60 53 47 46 40 27 24 22 23 24 26 27 29 31 33 33 35 37 36 33 35 33 26 23 23 25 26 25 23 27 25 23 20 20 22 23 25 28 30 31 33
63 60 55 46 41 37 28 24 20 20 21 22 24 25 26 28 30 30 32 33 33 30 30 32 27 23 22 23 25 24 23 25 25 23 20 17 16 18 21 22 24 27 29
59 54 46 40 34 29 25 21 19 18 19 21 21 23 24 26 27 28 30 31 30 29 28 27 28 26 22 21 22 22 22 22 22 24 20 16 16 14 12 13 16 20 23
46 43 38 33 29 27 24 20 17 17 18 18 19 21 23 25 27 28 29 29 28 28 27 26 25 24 25 22 20 19 19 19 20 19 20 14 9 10 13 13 17 17 17
Wind_Direction
283 283 282 282 281 280 279 278 278 277 275 271 271 273 272 270 267 268 268 268 267 265 264 265 268 269 268 264 262 263 264 264 258 256 254 252 252 254 254 253 254 253 253
282 283 283 283 282 283 282 281 279 277 275 273 272 273 273 272 270 266 269 270 271 272 268 266 264 265 268 271 269 264 264 263 262 259 259 256 252 251 252 252 253 254 254
288 288 287 286 286 285 285 284 283 281 279 278 275 273 271 270 269 269 269 269 268 269 270 271 273 270 267 269 264 265 264 263 262 261 261 259 259 254 252 251 251 252 253
288 288 288 287 287 287 286 285 284 283 282 280 278 277 275 273 270 269 267 266 267 268 268 266 266 267 269 268 260 260 261 261 262 261 259 258 257 259 258 256 254 250 250
289 289 289 289 289 288 287 286 285 284 283 282 281 280 279 278 276 274 272 270 268 266 265 266 267 267 265 266 266 267 264 260 259 258 257 258 257 258 258 256 256 256 254
291 291 291 290 290 290 289 288 286 286 285 284 283 283 281 280 279 277 276 274 272 270 268 267 265 265 266 266 266 267 268 267 265 265 258 255 255 254 255 256 255 253 255
292 291 291 290 289 288 288 288 287 287 286 287 286 286 285 284 282 280 278 276 275 273 271 268 266 266 266 266 267 266 265 265 265 265 264 261 259 257 257 255 255 254 252
292 290 290 290 291 291 291 291 291 291 291 291 290 291 289 287 285 283 281 280 278 276 274 272 270 268 266 265 265 265 264 264 264 262 262 261 259 258 259 258 256 253 252
290 290 291 291 292 293 293 293 293 293 292 292 293 293 292 290 288 286 283 281 280 278 276 274 272 271 269 266 264 262 262 262 260 260 260 258 257 256 256 257 256 256 253
290 290 291 292 293 293 293 293 293 293 294 294 295 295 295 293 291 287 284 282 280 278 277 276 277 274 272 271 267 265 263 261 260 258 256 256 255 253 252 251 254 255 256
289 291 292 292 293 293 294 295 296 297 297 298 299 299 296 293 291 290 289 283 281 282 283 284 283 283 280 277 275 272 269 265 262 259 257 255 253 252 251 249 248 250 251
288 290 291 293 295 296 297 299 300 300 300 302 301 297 294 300 300 293 287 284 285 286 287 290 286 284 283 282 282 281 278 274 269 263 259 256 254 252 251 250 248 246 246
289 292 293 293 294 296 298 299 300 300 303 303 296 289 296 302 308 304 295 286 284 285 290 292 291 292 291 288 286 284 281 276 272 269 264 259 255 252 250 247 247 247 247
293 292 292 293 294 296 298 299 301 300 303 296 288 293 298 299 299 308 303 294 291 291 292 294 296 294 295 297 299 294 289 283 278 270 265 262 257 253 251 249 247 245 247
291 290 291 293 295 297 299 300 299 300 299 289 289 294 297 300 302 303 302 301 300 299 299 295 292 291 293 296 303 299 292 288 284 279 270 261 259 252 250 248 248 244 244
291 293 294 296 296 296 296 298 301 301 295 290 295 299 302 306 306 307 307 306 305 305 303 301 297 295 297 303 310 308 300 294 289 284 276 268 259 252 245 245 246 244 242
293 294 294 295 294 293 294 296 295 297 291 290 295 298 302 305 306 308 308 307 306 305 303 302 301 299 302 308 314 312 305 300 297 291 281 270 259 251 242 242 244 245 245
294 293 292 292 292 294 295 297 296 292 277 287 295 297 301 305 307 307 308 308 308 307 304 302 300 299 301 310 319 317 310 307 301 298 289 271 257 250 241 239 243 245 243
291 290 290 291 295 297 297 298 295 285 275 282 292 300 304 308 310 310 309 309 309 307 304 300 298 297 299 310 320 324 316 312 307 302 302 286 262 251 244 241 243 244 245
287 289 291 295 297 298 297 297 291 273 273 282 290 297 304 309 312 313 313 313 312 311 310 308 301 294 297 308 319 328 323 315 312 298 292 299 272 253 246 245 246 246 243
287 290 294 297 298 296 295 293 282 263 273 284 292 300 305 309 313 314 316 318 320 322 320 314 306 297 297 307 318 326 329 324 315 305 284 271 271 269 258 249 246 246 247
290 293 296 297 295 294 292 286 261 261 274 285 295 302 309 314 316 318 321 324 326 326 328 321 309 303 303 311 317 323 327 326 326 315 300 277 261 253 251 253 255 255 254
288 291 295 293 291 290 285 261 250 263 276 287 297 304 313 318 321 322 324 327 330 329 334 331 319 312 311 315 318 323 325 330 323 321 312 297 284 269 257 251 248 250 252
285 288 290 286 285 284 261 241 251 266 278 289 298 308 316 321 325 326 327 330 332 329 333 340 334 318 314 315 319 321 324 318 328 326 311 311 302 289 274 267 262 256 248
280 278 277 277 277 265 238 241 254 269 281 291 302 312 319 323 327 328 328 331 335 334 328 332 341 339 326 318 319 321 323 327 325 329 324 311 316 305 285 283 284 273 260
269 265 264 263 261 237 234 242 255 271 281 292 306 315 320 325 328 327 326 327 329 332 336 332 328 334 342 339 329 327 326 328 332 332 335 319 309 319 318 297 275 284 274
Height
5637 5634 5631 5628 5625 5621 5618 5616 5614 5610 5605 5601 5599 5598 5594 5591 5588 5586 5585 5586 5587 5589 5589 5589 5589 5589 5590 5591 5591 5593 5595 5597 5603 5616 5620 5624 5627 5629 5630 5631 5634 5638 5641
5617 5613 5610 5606 5602 5598 5594 5591 5588 5585 5581 5578 5576 5572 5568 5566 5562 5561 5560 5559 5557 5558 5560 5562 5567 5566 5568 5568 5568 5570 5571 5573 5576 5583 5592 5598 5604 5606 5611 5613 5615 5618 5621
5595 5592 5588 5584 5579 5574 5570 5565 5561 5557 5554 5550 5547 5545 5542 5538 5534 5531 5531 5531 5531 5532 5532 5532 5533 5535 5542 5542 5542 5544 5548 5549 5550 5554 5564 5569 5577 5580 5585 5590 5594 5597 5600
5574 5569 5564 5559 5554 5549 5543 5539 5534 5529 5525 5521 5517 5514 5511 5508 5504 5501 5500 5502 5502 5502 5503 5506 5508 5508 5507 5508 5513 5517 5519 5523 5525 5529 5537 5544 5548 5553 5557 5565 5570 5573 5578
5552 5546 5540 5534 5528 5522 5517 5512 5506 5501 5497 5493 5489 5485 5480 5475 5472 5469 5467 5468 5470 5473 5475 5474 5474 5475 5478 5478 5476 5483 5486 5493 5496 5502 5510 5515 5522 5527 5531 5534 5541 5546 5553
5528 5521 5515 5508 5502 5497 5492 5487 5482 5477 5473 5469 5464 5460 5455 5449 5444 5440 5436 5436 5437 5439 5442 5443 5443 5442 5442 5444 5446 5448 5451 5455 5463 5468 5479 5487 5497 5498 5502 5506 5512 5518 5529
5503 5496 5490 5485 5481 5477 5473 5468 5463 5458 5454 5449 5444 5440 5435 5428 5420 5414 5410 5407 5407 5408 5408 5409 5412 5412 5409 5408 5410 5412 5417 5423 5427 5434 5440 5455 5460 5469 5471 5478 5481 5489 5499
5480 5474 5469 5466 5462 5458 5453 5448 5444 5439 5434 5428 5423 5417 5411 5405 5397 5391 5386 5383 5382 5380 5378 5377 5377 5380 5381 5378 5376 5378 5383 5389 5395 5394 5398 5418 5423 5434 5435 5442 5449 5458 5467
5462 5457 5453 5450 5446 5441 5436 5430 5424 5420 5415 5408 5402 5396 5389 5383 5374 5369 5363 5359 5358 5356 5352 5350 5349 5350 5349 5347 5347 5349 5353 5360 5357 5359 5363 5373 5384 5396 5403 5405 5414 5422 5439
5447 5443 5438 5434 5430 5425 5420 5414 5408 5402 5397 5390 5385 5376 5368 5362 5353 5345 5340 5337 5336 5333 5331 5329 5327 5325 5324 5322 5320 5321 5326 5327 5325 5327 5330 5335 5344 5354 5365 5369 5383 5386 5402
5433 5428 5423 5418 5414 5408 5404 5396 5390 5385 5378 5372 5366 5359 5351 5342 5334 5327 5324 5321 5320 5320 5318 5315 5312 5308 5304 5300 5297 5296 5295 5294 5295 5295 5299 5305 5311 5318 5326 5335 5344 5350 5364
5420 5415 5409 5403 5397 5391 5386 5379 5372 5365 5359 5354 5348 5343 5336 5329 5320 5315 5311 5309 5308 5307 5304 5300 5296 5291 5287 5282 5278 5274 5269 5263 5262 5262 5266 5273 5278 5287 5294 5300 5309 5315 5325
5406 5401 5395 5389 5383 5376 5370 5363 5357 5348 5343 5338 5333 5329 5325 5318 5310 5302 5298 5296 5294 5292 5289 5285 5280 5275 5270 5265 5258 5251 5244 5238 5233 5231 5233 5240 5247 5254 5259 5266 5276 5285 5291
5391 5386 5380 5375 5368 5362 5355 5347 5341 5333 5329 5324 5320 5316 5312 5307 5301 5294 5288 5284 5279 5276 5272 5268 5263 5258 5252 5245 5237 5227 5217 5210 5205 5204 5204 5207 5212 5221 5228 5237 5246 5256 5258
5376 5371 5365 5359 5353 5347 5340 5333 5327 5320 5315 5312 5308 5304 5300 5296 5290 5283 5278 5273 5268 5264 5260 5254 5249 5243 5238 5230 5221 5209 5198 5190 5182 5178 5178 5181 5184 5191 5202 5211 5217 5227 5230
5359 5353 5348 5343 5337 5331 5327 5323 5312 5307 5303 5300 5297 5292 5288 5282 5277 5271 5266 5260 5255 5250 5245 5239 5234 5227 5221 5212 5202 5191 5179 5171 5165 5161 5158 5158 5162 5167 5178 5186 5194 5201 5209
5342 5337 5332 5327 5322 5317 5313 5308 5305 5298 5290 5290 5287 5282 5277 5272 5266 5260 5254 5248 5241 5237 5230 5224 5218 5213 5206 5197 5187 5175 5165 5156 5149 5144 5140 5139 5141 5146 5156 5166 5174 5183 5191
5326 5322 5317 5312 5308 5303 5299 5294 5289 5285 5283 5280 5276 5273 5268 5263 5256 5250 5244 5236 5229 5221 5215 5210 5204 5198 5192 5185 5175 5163 5153 5145 5138 5132 5127 5126 5127 5130 5138 5147 5158 5166 5173
5311 5306 5303 5299 5294 5289 5284 5280 5275 5272 5271 5270 5267 5262 5258 5252 5246 5239 5232 5225 5217 5209 5202 5194 5189 5184 5179 5174 5165 5154 5144 5137 5130 5124 5120 5118 5118 5121 5127 5134 5143 5150 5156
5296 5292 5289 5285 5279 5274 5269 5265 5261 5259 5260 5259 5257 5253 5249 5243 5236 5229 5222 5214 5205 5196 5188 5181 5175 5171 5168 5164 5157 5147 5138 5130 5124 5120 5116 5115 5115 5117 5120 5125 5130 5136 5141
5281 5277 5274 5269 5264 5258 5254 5250 5248 5249 5249 5249 5246 5243 5239 5233 5227 5220 5212 5204 5195 5186 5177 5169 5163 5160 5158 5154 5148 5141 5134 5126 5120 5116 5113 5111 5111 5113 5115 5118 5121 5126 5130
5264 5261 5257 5253 5248 5243 5240 5237 5237 5239 5240 5239 5236 5233 5229 5223 5217 5210 5202 5194 5186 5178 5170 5162 5156 5152 5150 5146 5141 5135 5129 5123 5117 5111 5108 5106 5105 5106 5107 5110 5113 5116 5119
5247 5244 5241 5237 5234 5230 5227 5227 5228 5230 5230 5229 5227 5224 5219 5214 5208 5201 5195 5187 5180 5172 5165 5157 5151 5146 5143 5139 5135 5130 5125 5119 5113 5109 5104 5102 5101 5100 5100 5101 5102 5104 5108
5229 5228 5226 5223 5221 5219 5217 5219 5220 5222 5221 5220 5218 5215 5210 5206 5200 5194 5188 5182 5174 5167 5161 5154 5147 5142 5138 5134 5129 5125 5120 5116 5111 5106 5102 5099 5097 5096 5095 5096 5097 5098 5099
5210 5210 5210 5210 5209 5209 5210 5211 5212 5213 5213 5211 5209 5206 5202 5198 5192 5187 5182 5176 5169 5163 5157 5152 5146 5140 5134 5130 5125 5121 5117 5113 5108 5104 5098 5095 5094 5092 5091 5092 5092 5093 5094
5189 5192 5194 5197 5198 5200 5202 5204 5205 5205 5205 5203 5201 5198 5195 5190 5186 5180 5176 5170 5165 5159 5154 5148 5143 5138 5133 5127 5123 5119 5115 5110 5106 5102 5097 5093 5092 5091 5090 5089 5089 5090 5090